Location: Downe
(51.3167°N, 0.0500°E)
Time: 15:28:19
(UTC+00:00)

Cosmos 990 Rocket - Pass Details

Date: 17 November 2019
Orbit: 746 x 770 km, 74.0° (Epoch: 14 December)

Event Time Altitude Azimuth Distance (km) Brightness Sun altitude
Exits shadow 04:46:47 19° 197° (SSW) 1,758 5.7 -23.6°
Maximum altitude 04:50:36 80° 112° (ESE) 777 4.0 -23.0°
Drops below altitude 10° 04:55:49 10° 27° (NNE) 2,306 6.7 -22.2°
Sets 04:58:13 0° 26° (NNE) 3,240 7.5 -21.8°
